Lumberton, NC

12:26 PM EDT on September 26, 2016 (GMT -0400)
Lumberton Municipal

Weather History for KLBT - May, 2013

Change the Weather History Date:

Sunday, May 19, 2013

  Actual Average Record
Temperature  
Mean Temperature 76 °F 71 °F  
Max Temperature 84 °F 83 °F 96 °F (2000)
Min Temperature 68 °F 59 °F 45 °F (2002)
Degree Days  
Heating Degree Days 0 1  
Month to date heating degree days 32 29  
Since 1 July heating degree days 2796 2758  
Cooling Degree Days 11 6  
Month to date cooling degree days 67 86  
Year to date cooling degree days 111 154  
Growing Degree Days 24 (Base 50)    
Moisture  
Dew Point 68 °F    
Average Humidity 79    
Maximum Humidity 100    
Minimum Humidity 58    
Precipitation  
Precipitation 0.49 in 0.10 in 0.49 in (2013)
Month to date precipitation 1.22 1.63  
Year to date precipitation 12.58 13.65  
Sea Level Pressure  
Sea Level Pressure 30.12 in    
Wind  
Wind Speed 5 mph (South)    
Max Wind Speed 20 mph    
Max Gust Speed 26 mph    
Visibility 6 miles    
Events Rain    
T = Trace of Precipitation, MM = Missing Value Source: NWS Daily Summary

Daily Weather History Graph

Daily Weather History Graph

Search for Another Location

Airport or City:

Trip Planner

Search our weather history database for the weather conditions in past years. The results will help you decide how hot, cold, wet, or windy it might be!

Date:

Astronomy

May. 19, 2013 Rise Set
Actual Time 6:10 AM EDT 8:15 PM EDT
Civil Twilight 5:42 AM EDT 8:43 PM EDT
Nautical Twilight 5:08 AM EDT 9:17 PM EDT
Astronomical Twilight 4:31 AM EDT 9:55 PM EDT
Moon 2:31 PM EDT (5/19) 2:17 AM EDT (5/19)
Length of Visible Light 15h 01m
Length of Day
14h 04m
Waxing Gibbous, 65% of the Moon is Illuminated
May 19
Waxing Gibbous
May 25
Full
May 31
Last Quarter
Jun 8
New
Jun 16
First Quarter

Hourly Weather History & Observations

Time (EDT) Temp. Heat Index Dew Point Humidity Pressure Visibility Wind Dir Wind Speed Gust Speed Precip Events Conditions
12:54 AM 70.0 °F - 66.9 °F 90% 30.12 in 10.0 mi Calm Calm - N/A   Overcast
1:54 AM 69.1 °F - 66.9 °F 93% 30.11 in 9.0 mi Calm Calm - N/A   Overcast
2:25 AM 69.8 °F - 66.2 °F 88% 30.11 in 9.0 mi Calm Calm - N/A   Mostly Cloudy
2:38 AM 69.8 °F - 66.2 °F 88% 30.11 in 9.0 mi Calm Calm - N/A   Mostly Cloudy
2:54 AM 69.1 °F - 66.9 °F 93% 30.11 in 8.0 mi ESE 3.5 mph - N/A   Scattered Clouds
3:54 AM 69.1 °F - 66.9 °F 93% 30.10 in 7.0 mi Calm Calm - N/A   Scattered Clouds
4:54 AM 68.0 °F - 66.9 °F 96% 30.10 in 5.0 mi Calm Calm - N/A   Partly Cloudy
5:54 AM 68.0 °F - 66.9 °F 96% 30.11 in 6.0 mi Calm Calm - N/A   Overcast
6:54 AM 69.1 °F - 66.9 °F 93% 30.12 in 5.0 mi SSE 3.5 mph - N/A   Overcast
8:54 AM 73.9 °F - 68.0 °F 82% 30.14 in 10.0 mi SSE 8.1 mph - N/A   Overcast
9:24 AM 75.2 °F - 68.0 °F 78% 30.15 in 10.0 mi South 8.1 mph - N/A   Mostly Cloudy
9:45 AM 77.0 °F - 68.0 °F 74% 30.15 in 10.0 mi South 8.1 mph - N/A   Scattered Clouds
9:54 AM 75.0 °F - 69.1 °F 82% 30.14 in 10.0 mi South 6.9 mph - N/A   Mostly Cloudy
10:03 AM 73.4 °F - 68.0 °F 83% 30.15 in 2.5 mi WSW 11.5 mph 17.3 mph 0.02 in Rain Light Rain
10:06 AM 71.6 °F - 69.8 °F 94% 30.15 in 1.5 mi SW 10.4 mph 17.3 mph 0.03 in Rain Heavy Rain
10:14 AM 71.6 °F - 69.8 °F 94% 30.15 in 2.0 mi SSW 5.8 mph - 0.05 in Rain Light Rain
10:23 AM 71.6 °F - 69.8 °F 94% 30.15 in 5.0 mi SW 5.8 mph - 0.05 in Rain Light Rain
10:43 AM 71.6 °F - 69.8 °F 94% 30.15 in 6.0 mi SW 4.6 mph - 0.06 in Rain Light Rain
10:54 AM 72.0 °F - 70.0 °F 93% 30.15 in 6.0 mi SSW 6.9 mph - 0.06 in Rain Light Rain
11:08 AM 71.6 °F - 69.8 °F 94% 30.15 in 6.0 mi SW 3.5 mph - 0.00 in   Overcast
11:15 AM 71.6 °F - 69.8 °F 94% 30.16 in 6.0 mi Calm Calm - 0.00 in   Overcast
11:36 AM 71.6 °F - 69.8 °F 94% 30.15 in 6.0 mi Calm Calm - 0.00 in   Overcast
11:47 AM 71.6 °F - 69.8 °F 94% 30.15 in 7.0 mi Calm Calm - 0.00 in   Overcast
11:54 AM 73.9 °F - 71.1 °F 91% 30.15 in 8.0 mi South 3.5 mph - 0.00 in   Mostly Cloudy
11:57 AM 75.2 °F - 71.6 °F 89% 30.15 in 9.0 mi Variable 4.6 mph - N/A   Mostly Cloudy
12:54 PM 78.1 °F - 66.0 °F 66% 30.13 in 10.0 mi SSE 9.2 mph - N/A   Clear
1:54 PM 81.0 °F 82.7 °F 64.9 °F 58% 30.10 in 10.0 mi SSE 9.2 mph - N/A   Clear
4:36 PM 73.4 °F - 68.0 °F 83% 30.08 in 0.8 mi SW 18.4 mph 26.5 mph 0.18 in Rain Rain
4:54 PM 70.0 °F - 66.9 °F 90% 30.08 in 0.8 mi SSE 4.6 mph - 0.42 in Rain Heavy Rain
4:57 PM 69.8 °F - 66.2 °F 88% 30.08 in 1.2 mi SSE 5.8 mph - 0.00 in Rain Rain
5:01 PM 71.6 °F - 68.0 °F 88% 30.07 in 3.0 mi SSE 6.9 mph - 0.00 in Rain Light Rain
5:54 PM 70.0 °F - 66.9 °F 90% 30.08 in 10.0 mi South 6.9 mph 16.1 mph 0.01 in   Overcast
6:54 PM 70.0 °F - 68.0 °F 93% 30.08 in 9.0 mi South 4.6 mph - N/A   Mostly Cloudy
7:54 PM 70.0 °F - 68.0 °F 93% 30.08 in 6.0 mi Calm Calm - N/A   Overcast
8:54 PM 70.0 °F - 68.0 °F 93% 30.09 in 5.0 mi ESE 3.5 mph - N/A   Mostly Cloudy
9:22 PM 69.8 °F - 69.8 °F 100% 30.09 in 5.0 mi SE 3.5 mph - N/A   Overcast
9:41 PM 69.8 °F - 69.8 °F 100% 30.10 in 6.0 mi SE 3.5 mph - N/A   Scattered Clouds
9:54 PM 70.0 °F - 69.1 °F 97% 30.09 in 7.0 mi SSE 4.6 mph - N/A   Clear
10:54 PM 70.0 °F - 68.0 °F 93% 30.12 in 8.0 mi SSE 4.6 mph - N/A   Overcast
11:54 PM 70.0 °F - 68.0 °F 93% 30.11 in 7.0 mi SSE 4.6 mph - N/A   Overcast